STARLINK-33780, 63459

Orbit data source: Space-Track

STARLINK-33780, 63459 is a payload satellite owned by SpaceX/Seattle (US) in LEO that was launched on Fri, 04 Apr 2025 UTC via an FALCON 9 launch vehicle from the Air Force Western Test Range (AFWTR). Payload-class satellites include a variety of spacecraft equipped with specific instruments for various scientific and technological missions. These include communications satellites like Starlink; space stations such as the ISS; scientific satellites like the Hubble; Earth observation satellites from companies like Planet Labs, Umbra, and HawkEye 360; GPS; miniature CubeSats for education and research; and military/defense satellites.

Loading next visibility...
Identifier
63459, 2025-069AC
Orbit
LEO
Country
Flag of USUS
Related business
Manufacturer
SpaceX/Seattle
Mission
Operational Commercial Communications
Bus & Motor
STARLINK V2MO, Unknown motor
Mass
575 kg wet, ~530 kg dry
Launch date (UTC)
2025-04-04 (1 year ago)
Launch vehicle
FALCON 9
Launch site
Air Force Western Test Range (AFWTR)
Object type
Payload
Rocket body
Debris
Shape & HBR
Box + 2 Pan, 17.7 m
Radar Cross Section
36.964 m², Large (>1 m²)

Expand to show TLE details & history
Last TLE update: 11 hours ago

TLE from 11 hours ago
0 STARLINK-33780
1 63459U 25069AC  26145.37529273  .00011580  00000-0  27510-3 0  9998
2 63459  53.1589 143.5605 0001207  94.6334 265.4810 15.42165062 65079
Epoch: 2026-05-25T09:00Z
TLE epoch observation values (Epoch: 2026-05-25T09:00:25.291Z)
Latitude
-0.00003°
Longitude
125.49111°
Altitude
440.69 km
Speed
7.649 km/s
True Right ascension
09h 34m 14s
True Declination
0° 00' 00"
Sunlit
Object was in daylight at epoch
Visualization orbit readout
Latitude
Unknown
Longitude
Unknown
Altitude
Unknown
Speed
Unknown
Apparent Right ascension
Unknown
Apparent Declination
Unknown
Sunlit
N/A
Visualization observer readout
Local Sidereal Time
04:52:47
Azimuth
Unknown
Elevation
Unknown
Doppler factor
Unknown
Orbital elements
Apogee altitude
440.802 km
Perigee altitude
439.156 km
Semi-major axis
6,818.116 km
Eccentricity
0.00012
Inclination
53.1589°
RAAN
143.5605°
Arg. of periapsis
94.6334°
True anomaly
265.46721°
Mean anomaly
265.481°
Eccentric anomaly
265.47411°
Mean motion
3.8552 °/min
Orbital period
93.38 mins
BSTAR
0.0002751
Loading maneuver chart data...
Computing Atmospheric mass density...
Loading historical data...
Loading historical data...
Loading historical data...
Loading historical data...
Loading historical data...
Loading historical data...
Loading historical data...

Documentation

Showing up to 5 results
|